#Datum;Uhrzeit;WR;Pac;DaySum;Status;WR;Pac;DaySum;Status;Pdc1;Udc;Temp;WR;Pac;DaySum;Status;Pdc1;Udc;Temp;WR;Pac;DaySum;Status;Pdc1;Udc;Temp;WR;Pac;DaySum;Status;Pdc1;Pdc2;Udc1;Udc2;Temp;WR;Pac;DaySum;Status;Pdc1;Pdc2;Udc1;Udc2;Temp;WR;Pac;DaySum;Status;Pdc1;Udc;Temp;WR;Pac;DaySum;Status;Pdc1;Udc;Temp;WR;Pac;DaySum;Status;Pdc1;Udc;Temp
11.11.18;23:55:00;1;217;9619;0;2;0;8513;0;0;0;0;3;0;5174;0;0;0;0;4;0;5552;0;0;0;0;5;0;15127;0;0;0;0;0;0;6;0;11212;0;0;0;0;0;0;7;0;10793;0;0;0;0;8;0;10450;0;0;0;0;9;0;5234;0;0;0;0
11.11.18;23:50:00;1;219;9600;0;2;0;8513;0;0;0;0;3;0;5174;0;0;0;0;4;0;5552;0;0;0;0;5;0;15127;0;0;0;0;0;0;6;0;11212;0;0;0;0;0;0;7;0;10793;0;0;0;0;8;0;10450;0;0;0;0;9;0;5234;0;0;0;0
11.11.18;23:45:00;1;219;9582;0;2;0;8513;0;0;0;0;3;0;5174;0;0;0;0;4;0;5552;0;0;0;0;5;0;15127;0;0;0;0;0;0;6;0;11212;0;0;0;0;0;0;7;0;10793;0;0;0;0;8;0;10450;0;0;0;0;9;0;5234;0;0;0;0
11.11.18;23:40:00;1;219;9564;0;2;0;8513;0;0;0;0;3;0;5174;0;0;0;0;4;0;5552;0;0;0;0;5;0;15127;0;0;0;0;0;0;6;0;11212;0;0;0;0;0;0;7;0;10793;0;0;0;0;8;0;10450;0;0;0;0;9;0;5234;0;0;0;0
11.11.18;23:35:00;1;219;9545;0;2;0;8513;0;0;0;0;3;0;5174;0;0;0;0;4;0;5552;0;0;0;0;5;0;15127;0;0;0;0;0;0;6;0;11212;0;0;0;0;0;0;7;0;10793;0;0;0;0;8;0;10450;0;0;0;0;9;0;5234;0;0;0;0
11.11.18;23:30:00;1;282;9527;0;2;0;8513;0;0;0;0;3;0;5174;0;0;0;0;4;0;5552;0;0;0;0;5;0;15127;0;0;0;0;0;0;6;0;11212;0;0;0;0;0;0;7;0;10793;0;0;0;0;8;0;10450;0;0;0;0;9;0;5234;0;0;0;0
11.11.18;23:25:00;1;276;9503;0;2;0;8513;0;0;0;0;3;0;5174;0;0;0;0;4;0;5552;0;0;0;0;5;0;15127;0;0;0;0;0;0;6;0;11212;0;0;0;0;0;0;7;0;10793;0;0;0;0;8;0;10450;0;0;0;0;9;0;5234;0;0;0;0
11.11.18;23:20:00;1;373;9480;0;2;0;8513;0;0;0;0;3;0;5174;0;0;0;0;4;0;5552;0;0;0;0;5;0;15127;0;0;0;0;0;0;6;0;11212;0;0;0;0;0;0;7;0;10793;0;0;0;0;8;0;10450;0;0;0;0;9;0;5234;0;0;0;0
11.11.18;23:15:00;1;456;9449;0;2;0;8513;0;0;0;0;3;0;5174;0;0;0;0;4;0;5552;0;0;0;0;5;0;15127;0;0;0;0;0;0;6;0;11212;0;0;0;0;0;0;7;0;10793;0;0;0;0;8;0;10450;0;0;0;0;9;0;5234;0;0;0;0
11.11.18;23:10:00;1;464;9410;0;2;0;8513;0;0;0;0;3;0;5174;0;0;0;0;4;0;5552;0;0;0;0;5;0;15127;0;0;0;0;0;0;6;0;11212;0;0;0;0;0;0;7;0;10793;0;0;0;0;8;0;10450;0;0;0;0;9;0;5234;0;0;0;0
11.11.18;23:07:00;1;463;9387;0;2;0;8513;0;0;0;0;3;0;5174;0;0;0;0;4;0;5552;0;0;0;0;5;0;15127;0;0;0;0;0;0;6;0;11212;0;0;0;0;0;0;7;0;10793;0;0;0;0;8;0;10450;0;0;0;0;9;0;5234;0;0;0;0
11.11.18;23:00:00;1;407;9336;0;2;0;8513;0;0;0;0;3;0;5174;0;0;0;0;4;0;5552;0;0;0;0;5;0;15127;0;0;0;0;0;0;6;0;11212;0;0;0;0;0;0;7;0;10793;0;0;0;0;8;0;10450;0;0;0;0;9;0;5234;0;0;0;0
11.11.18;22:55:00;1;381;9302;0;2;0;8513;0;0;0;0;3;0;5174;0;0;0;0;4;0;5552;0;0;0;0;5;0;15127;2;0;0;0;0;0;6;0;11212;2;0;0;0;0;0;7;0;10793;0;0;0;0;8;0;10450;0;0;0;0;9;0;5234;0;0;0;0
11.11.18;22:50:00;1;363;9271;0;2;0;8513;0;0;0;0;3;0;5174;0;0;0;0;4;0;5552;0;0;0;0;5;0;15127;2;0;0;0;0;0;6;0;11212;2;0;0;0;0;0;7;0;10793;0;0;0;0;8;0;10450;0;0;0;0;9;0;5234;0;0;0;0
11.11.18;22:45:00;1;330;9241;0;2;0;8513;0;0;0;0;3;0;5174;0;0;0;0;4;0;5552;0;0;0;0;5;0;15127;2;0;0;0;0;0;6;0;11212;2;0;0;0;0;0;7;0;10793;0;0;0;0;8;0;10450;0;0;0;0;9;0;5234;0;0;0;0
11.11.18;22:40:00;1;376;9212;0;2;0;8513;0;0;0;0;3;0;5174;0;0;0;0;4;0;5552;0;0;0;0;5;0;15127;2;0;0;0;0;0;6;0;11212;2;0;0;0;0;0;7;0;10793;0;0;0;0;8;0;10450;0;0;0;0;9;0;5234;0;0;0;0
11.11.18;22:35:00;1;392;9181;0;2;0;8513;0;0;0;0;3;0;5174;0;0;0;0;4;0;5552;0;0;0;0;5;0;15127;2;0;0;0;0;0;6;0;11212;2;0;0;0;0;0;7;0;10793;0;0;0;0;8;0;10450;0;0;0;0;9;0;5234;0;0;0;0
11.11.18;22:30:00;1;418;9149;0;2;0;8513;0;0;0;0;3;0;5174;0;0;0;0;4;0;5552;0;0;0;0;5;0;15127;2;0;0;0;0;0;6;0;11212;2;0;0;0;0;0;7;0;10793;0;0;0;0;8;0;10450;0;0;0;0;9;0;5234;0;0;0;0
11.11.18;22:25:00;1;434;9113;0;2;0;8513;0;0;0;0;3;0;5174;0;0;0;0;4;0;5552;0;0;0;0;5;0;15127;2;0;0;0;0;0;6;0;11212;2;0;0;0;0;0;7;0;10793;0;0;0;0;8;0;10450;0;0;0;0;9;0;5234;0;0;0;0
11.11.18;22:20:00;1;448;9077;0;2;0;8513;0;0;0;0;3;0;5174;0;0;0;0;4;0;5552;0;0;0;0;5;0;15127;2;0;0;0;0;0;6;0;11212;2;0;0;0;0;0;7;0;10793;0;0;0;0;8;0;10450;0;0;0;0;9;0;5234;0;0;0;0
11.11.18;22:15:00;1;459;9039;0;2;0;8513;0;0;0;0;3;0;5174;0;0;0;0;4;0;5552;0;0;0;0;5;0;15127;2;0;0;0;0;0;6;0;11212;2;0;0;0;0;0;7;0;10793;0;0;0;0;8;0;10450;0;0;0;0;9;0;5234;0;0;0;0
11.11.18;22:10:00;1;442;9001;0;2;0;8513;0;0;0;0;3;0;5174;0;0;0;0;4;0;5552;0;0;0;0;5;0;15127;2;0;0;0;0;0;6;0;11212;2;0;0;0;0;0;7;0;10793;0;0;0;0;8;0;10450;0;0;0;0;9;0;5234;0;0;0;0
11.11.18;22:05:00;1;343;8964;0;2;0;8513;0;0;0;0;3;0;5174;0;0;0;0;4;0;5552;0;0;0;0;5;0;15127;2;0;0;0;0;0;6;0;11212;2;0;0;0;0;0;7;0;10793;0;0;0;0;8;0;10450;0;0;0;0;9;0;5234;0;0;0;0
11.11.18;22:00:00;1;361;8934;0;2;0;8513;0;0;0;0;3;0;5174;0;0;0;0;4;0;5552;0;0;0;0;5;0;15127;2;0;0;0;0;0;6;0;11212;2;0;0;0;0;0;7;0;10793;0;0;0;0;8;0;10450;0;0;0;0;9;0;5234;0;0;0;0
11.11.18;21:55:00;1;365;8904;0;2;0;8513;0;0;0;0;3;0;5174;0;0;0;0;4;0;5552;0;0;0;0;5;0;15127;2;0;0;0;0;0;6;0;11212;2;0;0;0;0;0;7;0;10793;0;0;0;0;8;0;10450;0;0;0;0;9;0;5234;0;0;0;0
11.11.18;21:50:00;1;356;8874;0;2;0;8513;0;0;0;0;3;0;5174;0;0;0;0;4;0;5552;0;0;0;0;5;0;15127;2;0;0;0;0;0;6;0;11212;2;0;0;0;0;0;7;0;10793;0;0;0;0;8;0;10450;0;0;0;0;9;0;5234;0;0;0;0
11.11.18;21:45:00;1;368;8844;0;2;0;8513;0;0;0;0;3;0;5174;0;0;0;0;4;0;5552;0;0;0;0;5;0;15127;2;0;0;0;0;0;6;0;11212;2;0;0;0;0;0;7;0;10793;0;0;0;0;8;0;10450;0;0;0;0;9;0;5234;0;0;0;0
11.11.18;21:40:00;1;355;8813;0;2;0;8513;0;0;0;0;3;0;5174;0;0;0;0;4;0;5552;0;0;0;0;5;0;15127;2;0;0;0;0;0;6;0;11212;2;0;0;0;0;0;7;0;10793;0;0;0;0;8;0;10450;0;0;0;0;9;0;5234;0;0;0;0
11.11.18;21:35:00;1;344;8784;0;2;0;8513;0;0;0;0;3;0;5174;0;0;0;0;4;0;5552;0;0;0;0;5;0;15127;2;0;0;0;0;0;6;0;11212;2;0;0;0;0;0;7;0;10793;0;0;0;0;8;0;10450;0;0;0;0;9;0;5234;0;0;0;0
11.11.18;21:30:00;1;376;8756;0;2;0;8513;0;0;0;0;3;0;5174;0;0;0;0;4;0;5552;0;0;0;0;5;0;15127;2;0;0;0;0;0;6;0;11212;2;0;0;0;0;0;7;0;10793;0;0;0;0;8;0;10450;0;0;0;0;9;0;5234;0;0;0;0
11.11.18;21:25:00;1;411;8723;0;2;0;8513;0;0;0;0;3;0;5174;0;0;0;0;4;0;5552;0;0;0;0;5;0;15127;2;0;0;0;0;0;6;0;11212;2;0;0;0;0;0;7;0;10793;0;0;0;0;8;0;10450;0;0;0;0;9;0;5234;0;0;0;0
11.11.18;21:20:00;1;412;8689;0;2;0;8513;0;0;0;0;3;0;5174;0;0;0;0;4;0;5552;0;0;0;0;5;0;15127;2;0;0;0;0;0;6;0;11212;2;0;0;0;0;0;7;0;10793;0;0;0;0;8;0;10450;0;0;0;0;9;0;5234;0;0;0;0
11.11.18;21:15:00;1;402;8655;0;2;0;8513;0;0;0;0;3;0;5174;0;0;0;0;4;0;5552;0;0;0;0;5;0;15127;2;0;0;0;0;0;6;0;11212;2;0;0;0;0;0;7;0;10793;0;0;0;0;8;0;10450;0;0;0;0;9;0;5234;0;0;0;0
11.11.18;21:10:00;1;339;8621;0;2;0;8513;0;0;0;0;3;0;5174;0;0;0;0;4;0;5552;0;0;0;0;5;0;15127;2;0;0;0;0;0;6;0;11212;2;0;0;0;0;0;7;0;10793;0;0;0;0;8;0;10450;0;0;0;0;9;0;5234;0;0;0;0
11.11.18;21:05:00;1;344;8593;0;2;0;8513;0;0;0;0;3;0;5174;0;0;0;0;4;0;5552;0;0;0;0;5;0;15127;2;0;0;0;0;0;6;0;11212;2;0;0;0;0;0;7;0;10793;0;0;0;0;8;0;10450;0;0;0;0;9;0;5234;0;0;0;0
11.11.18;21:00:00;1;307;8564;0;2;0;8513;0;0;0;0;3;0;5174;0;0;0;0;4;0;5552;0;0;0;0;5;0;15127;2;0;0;0;0;0;6;0;11212;2;0;0;0;0;0;7;0;10793;0;0;0;0;8;0;10450;0;0;0;0;9;0;5234;0;0;0;0
11.11.18;20:55:00;1;317;8538;0;2;0;8513;0;0;0;0;3;0;5174;0;0;0;0;4;0;5552;0;0;0;0;5;0;15127;2;0;0;0;0;0;6;0;11212;2;0;0;0;0;0;7;0;10793;0;0;0;0;8;0;10450;0;0;0;0;9;0;5234;0;0;0;0
11.11.18;20:50:00;1;327;8511;0;2;0;8513;0;0;0;0;3;0;5174;0;0;0;0;4;0;5552;0;0;0;0;5;0;15127;2;0;0;0;0;0;6;0;11212;2;0;0;0;0;0;7;0;10793;0;0;0;0;8;0;10450;0;0;0;0;9;0;5234;0;0;0;0
11.11.18;20:45:00;1;304;8483;0;2;0;8513;0;0;0;0;3;0;5174;0;0;0;0;4;0;5552;0;0;0;0;5;0;15127;2;0;0;0;0;0;6;0;11212;2;0;0;0;0;0;7;0;10793;0;0;0;0;8;0;10450;0;0;0;0;9;0;5234;0;0;0;0
11.11.18;20:40:00;1;382;8457;0;2;0;8513;0;0;0;0;3;0;5174;0;0;0;0;4;0;5552;0;0;0;0;5;0;15127;2;0;0;0;0;0;6;0;11212;2;0;0;0;0;0;7;0;10793;0;0;0;0;8;0;10450;0;0;0;0;9;0;5234;0;0;0;0
11.11.18;20:35:00;1;333;8428;0;2;0;8513;0;0;0;0;3;0;5174;0;0;0;0;4;0;5552;0;0;0;0;5;0;15127;2;0;0;0;0;0;6;0;11212;2;0;0;0;0;0;7;0;10793;0;0;0;0;8;0;10450;0;0;0;0;9;0;5234;0;0;0;0
11.11.18;20:30:00;1;328;8400;0;2;0;8513;0;0;0;0;3;0;5174;0;0;0;0;4;0;5552;0;0;0;0;5;0;15127;2;0;0;0;0;0;6;0;11212;2;0;0;0;0;0;7;0;10793;0;0;0;0;8;0;10450;0;0;0;0;9;0;5234;0;0;0;0
11.11.18;20:25:00;1;329;8373;0;2;0;8513;0;0;0;0;3;0;5174;0;0;0;0;4;0;5552;0;0;0;0;5;0;15127;2;0;0;0;0;0;6;0;11212;2;0;0;0;0;0;7;0;10793;0;0;0;0;8;0;10450;0;0;0;0;9;0;5234;0;0;0;0
11.11.18;20:20:00;1;340;8345;0;2;0;8513;0;0;0;0;3;0;5174;0;0;0;0;4;0;5552;0;0;0;0;5;0;15127;2;0;0;0;0;0;6;0;11212;2;0;0;0;0;0;7;0;10793;0;0;0;0;8;0;10450;0;0;0;0;9;0;5234;0;0;0;0
11.11.18;20:15:00;1;312;8317;0;2;0;8513;0;0;0;0;3;0;5174;0;0;0;0;4;0;5552;0;0;0;0;5;0;15127;2;0;0;0;0;0;6;0;11212;2;0;0;0;0;0;7;0;10793;0;0;0;0;8;0;10450;0;0;0;0;9;0;5234;0;0;0;0
11.11.18;20:10:00;1;290;8291;0;2;0;8513;0;0;0;0;3;0;5174;0;0;0;0;4;0;5552;0;0;0;0;5;0;15127;2;0;0;0;0;0;6;0;11212;2;0;0;0;0;0;7;0;10793;0;0;0;0;8;0;10450;0;0;0;0;9;0;5234;0;0;0;0
11.11.18;20:05:00;1;290;8267;0;2;0;8513;0;0;0;0;3;0;5174;0;0;0;0;4;0;5552;0;0;0;0;5;0;15127;2;0;0;0;0;0;6;0;11212;2;0;0;0;0;0;7;0;10793;0;0;0;0;8;0;10450;0;0;0;0;9;0;5234;0;0;0;0
11.11.18;20:00:00;1;291;8242;0;2;0;8513;0;0;0;0;3;0;5174;0;0;0;0;4;0;5552;0;0;0;0;5;0;15127;2;0;0;0;0;0;6;0;11212;2;0;0;0;0;0;7;0;10793;0;0;0;0;8;0;10450;0;0;0;0;9;0;5234;0;0;0;0
11.11.18;19:55:00;1;293;8218;0;2;0;8513;0;0;0;0;3;0;5174;0;0;0;0;4;0;5552;0;0;0;0;5;0;15127;2;0;0;0;0;0;6;0;11212;2;0;0;0;0;0;7;0;10793;0;0;0;0;8;0;10450;0;0;0;0;9;0;5234;0;0;0;0
11.11.18;19:50:00;1;338;8194;0;2;0;8513;0;0;0;0;3;0;5174;0;0;0;0;4;0;5552;0;0;0;0;5;0;15127;2;0;0;0;0;0;6;0;11212;2;0;0;0;0;0;7;0;10793;0;0;0;0;8;0;10450;0;0;0;0;9;0;5234;0;0;0;0
11.11.18;19:45:00;1;405;8165;0;2;0;8513;0;0;0;0;3;0;5174;0;0;0;0;4;0;5552;0;0;0;0;5;0;15127;2;0;0;0;0;0;6;0;11212;2;0;0;0;0;0;7;0;10793;0;0;0;0;8;0;10450;0;0;0;0;9;0;5234;0;0;0;0
11.11.18;19:40:00;1;407;8130;0;2;0;8513;0;0;0;0;3;0;5174;0;0;0;0;4;0;5552;0;0;0;0;5;0;15127;2;0;0;0;0;0;6;0;11212;2;0;0;0;0;0;7;0;10793;0;0;0;0;8;0;10450;0;0;0;0;9;0;5234;0;0;0;0
11.11.18;19:35:00;1;373;8101;0;2;0;8513;0;0;0;0;3;0;5174;0;0;0;0;4;0;5552;0;0;0;0;5;0;15127;2;0;0;0;0;0;6;0;11212;2;0;0;0;0;0;7;0;10793;0;0;0;0;8;0;10450;0;0;0;0;9;0;5234;0;0;0;0
11.11.18;19:30:00;1;406;8068;0;2;0;8513;0;0;0;0;3;0;5174;0;0;0;0;4;0;5552;0;0;0;0;5;0;15127;2;0;0;0;0;0;6;0;11212;2;0;0;0;0;0;7;0;10793;0;0;0;0;8;0;10450;0;0;0;0;9;0;5234;0;0;0;0
11.11.18;19:25:00;1;283;8034;0;2;0;8513;0;0;0;0;3;0;5174;0;0;0;0;4;0;5552;0;0;0;0;5;0;15127;2;0;0;0;0;0;6;0;11212;2;0;0;0;0;0;7;0;10793;0;0;0;0;8;0;10450;0;0;0;0;9;0;5234;0;0;0;0
11.11.18;19:20:00;1;235;8004;0;2;0;8513;0;0;0;0;3;0;5174;0;0;0;0;4;0;5552;0;0;0;0;5;0;15127;2;0;0;0;0;0;6;0;11212;2;0;0;0;0;0;7;0;10793;0;0;0;0;8;0;10450;0;0;0;0;9;0;5234;0;0;0;0
11.11.18;19:15:00;1;197;7985;0;2;0;8513;0;0;0;0;3;0;5174;0;0;0;0;4;0;5552;0;0;0;0;5;0;15127;2;0;0;0;0;0;6;0;11212;2;0;0;0;0;0;7;0;10793;0;0;0;0;8;0;10450;0;0;0;0;9;0;5234;0;0;0;0
11.11.18;19:10:00;1;178;7969;0;2;0;8513;0;0;0;0;3;0;5174;0;0;0;0;4;0;5552;0;0;0;0;5;0;15127;2;0;0;0;0;0;6;0;11212;2;0;0;0;0;0;7;0;10793;0;0;0;0;8;0;10450;0;0;0;0;9;0;5234;0;0;0;0
11.11.18;19:05:00;1;178;7954;0;2;0;8513;0;0;0;0;3;0;5174;0;0;0;0;4;0;5552;0;0;0;0;5;0;15127;2;0;0;0;0;0;6;0;11212;2;0;0;0;0;0;7;0;10793;0;0;0;0;8;0;10450;0;0;0;0;9;0;5234;0;0;0;0
11.11.18;19:00:00;1;181;7939;0;2;0;8513;0;0;0;0;3;0;5174;0;0;0;0;4;0;5552;0;0;0;0;5;0;15127;2;0;0;0;0;0;6;0;11212;2;0;0;0;0;0;7;0;10793;0;0;0;0;8;0;10450;0;0;0;0;9;0;5234;0;0;0;0
11.11.18;18:55:00;1;181;7924;0;2;0;8513;0;0;0;0;3;0;5174;0;0;0;0;4;0;5552;0;0;0;0;5;0;15127;2;0;0;0;0;0;6;0;11212;2;0;0;0;0;0;7;0;10793;0;0;0;0;8;0;10450;0;0;0;0;9;0;5234;0;0;0;0
11.11.18;18:50:00;1;200;7909;0;2;0;8513;0;0;0;0;3;0;5174;0;0;0;0;4;0;5552;0;0;0;0;5;0;15127;2;0;0;0;0;0;6;0;11212;2;0;0;0;0;0;7;0;10793;0;0;0;0;8;0;10450;0;0;0;0;9;0;5234;0;0;0;0
11.11.18;18:45:00;1;225;7892;0;2;0;8513;0;0;0;0;3;0;5174;0;0;0;0;4;0;5552;0;0;0;0;5;0;15127;2;0;0;0;0;0;6;0;11212;2;0;0;0;0;0;7;0;10793;0;0;0;0;8;0;10450;0;0;0;0;9;0;5234;0;0;0;0
11.11.18;18:40:00;1;265;7873;0;2;0;8513;0;0;0;0;3;0;5174;0;0;0;0;4;0;5552;0;0;0;0;5;0;15127;2;0;0;0;0;0;6;0;11212;2;0;0;0;0;0;7;0;10793;0;0;0;0;8;0;10450;0;0;0;0;9;0;5234;0;0;0;0
11.11.18;18:35:00;1;266;7851;0;2;0;8513;0;0;0;0;3;0;5174;0;0;0;0;4;0;5552;0;0;0;0;5;0;15127;2;0;0;0;0;0;6;0;11212;2;0;0;0;0;0;7;0;10793;0;0;0;0;8;0;10450;0;0;0;0;9;0;5234;0;0;0;0
11.11.18;18:30:00;1;270;7829;0;2;0;8513;0;0;0;0;3;0;5174;0;0;0;0;4;0;5552;0;0;0;0;5;0;15127;2;0;0;0;0;0;6;0;11212;2;0;0;0;0;0;7;0;10793;0;0;0;0;8;0;10450;0;0;0;0;9;0;5234;0;0;0;0
11.11.18;18:25:00;1;274;7806;0;2;0;8513;0;0;0;0;3;0;5174;0;0;0;0;4;0;5552;0;0;0;0;5;0;15127;2;0;0;0;0;0;6;0;11212;2;0;0;0;0;0;7;0;10793;0;0;0;0;8;0;10450;0;0;0;0;9;0;5234;0;0;0;0
11.11.18;18:20:00;1;226;7785;0;2;0;8513;0;0;0;0;3;0;5174;0;0;0;0;4;0;5552;0;0;0;0;5;0;15127;2;0;0;0;0;0;6;0;11212;2;0;0;0;0;0;7;0;10793;0;0;0;0;8;0;10450;0;0;0;0;9;0;5234;0;0;0;0
11.11.18;18:15:00;1;229;7766;0;2;0;8513;0;0;0;0;3;0;5174;0;0;0;0;4;0;5552;0;0;0;0;5;0;15127;2;0;0;0;0;0;6;0;11212;2;0;0;0;0;0;7;0;10793;0;0;0;0;8;0;10450;0;0;0;0;9;0;5234;0;0;0;0
11.11.18;18:10:00;1;180;7749;0;2;0;8513;0;0;0;0;3;0;5174;0;0;0;0;4;0;5552;0;0;0;0;5;0;15127;2;0;0;0;0;0;6;0;11212;2;0;0;0;0;0;7;0;10793;0;0;0;0;8;0;10450;0;0;0;0;9;0;5234;0;0;0;0
11.11.18;18:05:00;1;180;7734;0;2;0;8513;0;0;0;0;3;0;5174;0;0;0;0;4;0;5552;0;0;0;0;5;0;15127;2;0;0;0;0;0;6;0;11212;2;0;0;0;0;0;7;0;10793;0;0;0;0;8;0;10450;0;0;0;0;9;0;5234;0;0;0;0
11.11.18;18:00:00;1;179;7719;0;2;0;8513;0;0;0;0;3;0;5174;0;0;0;0;4;0;5552;0;0;0;0;5;0;15127;2;0;0;0;0;0;6;0;11212;2;0;0;0;0;0;7;0;10793;0;0;0;0;8;0;10450;0;0;0;0;9;0;5234;0;0;0;0
11.11.18;17:55:00;1;180;7704;0;2;0;8513;0;0;0;0;3;0;5174;0;0;0;0;4;0;5552;0;0;0;0;5;0;15127;2;0;0;0;0;0;6;0;11212;2;0;0;0;0;0;7;0;10793;0;0;0;0;8;0;10450;0;0;0;0;9;0;5234;0;0;0;0
11.11.18;17:50:00;1;180;7689;0;2;0;8513;0;0;0;0;3;0;5174;0;0;0;0;4;0;5552;0;0;0;0;5;0;15127;2;0;0;0;0;0;6;0;11212;2;0;0;0;0;0;7;0;10793;0;0;0;0;8;0;10450;0;0;0;0;9;0;5234;0;0;0;0
11.11.18;17:45:00;1;206;7674;0;2;0;8513;0;0;0;0;3;0;5174;0;0;0;0;4;0;5552;0;0;0;0;5;0;15127;2;0;0;0;0;0;6;0;11212;2;0;0;0;0;0;7;0;10793;0;0;0;0;8;0;10450;0;0;0;0;9;0;5234;0;0;0;0
11.11.18;17:40:00;1;281;7653;0;2;0;8513;0;0;0;0;3;0;5174;0;0;0;0;4;0;5552;0;0;0;0;5;0;15127;2;0;0;0;0;0;6;0;11212;2;0;0;0;0;0;7;0;10793;0;0;0;0;8;0;10450;0;0;0;0;9;0;5234;0;0;0;0
11.11.18;17:35:00;1;283;7630;0;2;0;8513;0;0;0;0;3;0;5174;0;0;0;0;4;0;5552;0;0;0;0;5;0;15127;2;0;0;0;0;0;6;0;11212;2;0;0;0;0;0;7;0;10793;0;0;0;0;8;0;10450;0;0;0;0;9;0;5234;0;0;0;0
11.11.18;17:30:00;1;270;7606;0;2;0;8513;0;0;0;0;3;0;5174;0;0;0;0;4;0;5552;0;0;0;0;5;0;15127;2;0;0;0;0;0;6;0;11212;2;0;0;0;0;0;7;0;10793;0;0;0;0;8;0;10450;0;0;0;0;9;0;5234;0;0;0;0
11.11.18;17:25:00;1;242;7583;0;2;0;8513;0;0;0;0;3;0;5174;0;0;0;0;4;0;5552;0;0;0;0;5;0;15127;2;0;0;0;0;0;6;0;11212;2;0;0;0;0;0;7;0;10793;0;0;0;0;8;0;10450;0;0;0;0;9;0;5234;0;0;0;0
11.11.18;17:20:00;1;242;7563;0;2;0;8513;0;0;0;0;3;0;5174;0;0;0;0;4;0;5552;0;0;0;0;5;0;15127;2;0;0;0;0;0;6;0;11212;2;0;0;0;0;0;7;0;10793;0;0;0;0;8;0;10450;0;0;0;0;9;0;5234;0;0;0;0
11.11.18;17:15:00;1;240;7543;0;2;0;8513;0;0;0;0;3;0;5174;0;0;0;0;4;0;5552;0;0;0;0;5;0;15127;2;0;0;0;0;0;6;0;11212;2;0;0;0;0;0;7;0;10793;0;0;0;0;8;0;10450;0;0;0;0;9;0;5234;0;0;0;0
11.11.18;17:10:00;1;212;7523;0;2;0;8513;0;0;0;0;3;0;5174;0;0;0;0;4;0;5552;0;0;0;0;5;0;15127;2;0;0;0;0;0;6;0;11212;2;0;0;0;0;0;7;0;10793;0;0;0;0;8;0;10450;0;0;0;0;9;0;5234;0;0;0;0
11.11.18;17:05:00;1;253;7504;0;2;0;8513;0;0;0;0;3;0;5174;0;0;0;0;4;0;5552;0;0;0;0;5;0;15127;2;0;0;0;0;0;6;0;11212;2;0;0;0;0;0;7;0;10793;0;0;0;0;8;0;10450;0;0;0;0;9;0;5234;0;0;0;0
11.11.18;17:00:00;1;181;7486;0;2;0;8513;0;0;0;0;3;0;5174;0;0;111;9;4;0;5552;0;0;0;0;5;0;15127;2;0;0;0;0;0;6;0;11212;0;0;0;0;0;0;7;0;10793;0;0;0;0;8;0;10450;0;0;0;0;9;0;5234;0;0;0;0
11.11.18;16:55:00;1;182;7471;0;2;0;8513;0;0;170;12;3;0;5174;6;0;290;21;4;0;5552;0;0;0;0;5;0;15127;2;0;0;0;0;0;6;0;11212;0;0;0;0;0;0;7;0;10793;0;0;0;0;8;0;10450;0;0;0;0;9;0;5234;0;0;0;0
11.11.18;16:50:00;1;249;7456;0;2;0;8513;6;0;299;20;3;0;5174;6;0;347;21;4;0;5552;2;0;82;20;5;0;15127;2;0;0;0;0;0;6;0;11212;2;0;0;0;0;0;7;0;10793;0;0;0;0;8;0;10450;0;0;0;0;9;0;5234;0;0;0;0
11.11.18;16:45:00;1;247;7432;0;2;0;8513;6;0;320;20;3;0;5174;6;0;391;22;4;0;5552;1;0;106;20;5;0;15127;2;0;0;171;169;30;6;0;11212;2;4;0;173;89;14;7;0;10793;0;0;0;0;8;0;10450;0;0;0;0;9;0;5234;0;0;125;9
11.11.18;16:40:00;1;221;7413;0;2;0;8513;6;0;363;21;3;0;5174;6;1;440;22;4;0;5552;1;0;169;20;5;0;15127;23;0;0;392;507;30;6;0;11212;23;13;1;235;466;29;7;0;10793;6;0;341;24;8;0;10450;6;0;341;23;9;0;5234;6;0;350;18
11.11.18;16:35:00;1;221;7394;0;2;0;8513;6;0;380;22;3;3;5174;3;9;422;22;4;0;5552;1;0;200;21;5;10;15127;1;0;0;404;632;31;6;0;11212;23;11;0;182;550;29;7;0;10793;6;0;398;24;8;0;10450;6;0;401;23;9;0;5234;3;1;395;19
11.11.18;16:30:00;1;176;7375;0;2;0;8513;6;0;402;22;3;1;5174;6;5;490;23;4;0;5552;3;0;208;22;5;63;15126;1;3;12;381;610;31;6;7;11212;23;13;6;455;517;30;7;0;10793;6;2;439;25;8;0;10450;6;3;441;24;9;2;5234;6;2;479;19
11.11.18;16:25:00;1;178;7360;0;2;0;8513;6;0;415;23;3;0;5173;6;0;530;23;4;0;5552;3;0;200;22;5;96;15121;4;20;27;374;599;32;6;50;11212;4;41;24;444;225;31;7;0;10793;6;0;484;25;8;0;10450;6;0;484;24;9;0;5233;6;0;531;19
11.11.18;16:20:00;1;249;7345;0;2;69;8513;4;102;358;24;3;11;5173;6;21;495;24;4;17;5552;3;18;198;22;5;144;15111;4;41;52;374;599;32;6;72;11207;4;55;29;444;225;31;7;47;10793;4;73;405;26;8;33;10450;6;64;409;25;9;1;5233;6;6;528;19
11.11.18;16:15:00;1;254;7324;0;2;117;8507;4;153;370;25;3;28;5173;6;49;513;24;4;42;5551;3;44;198;22;5;172;15099;4;60;69;374;599;32;6;83;11201;4;54;30;444;225;31;7;67;10789;4;106;416;26;8;59;10447;4;98;418;25;9;13;5233;6;25;493;20
11.11.18;16:10:00;1;421;7299;0;2;462;8497;4;511;373;26;3;234;5169;4;271;409;25;4;198;5547;3;206;218;22;5;356;15084;4;154;154;383;610;32;6;191;11193;4;132;75;463;225;31;7;177;10784;4;209;440;27;8;132;10442;4;166;411;26;9;7;5232;6;12;553;20
11.11.18;16:05:00;1;412;7264;0;2;584;8459;4;633;378;27;3;298;5150;4;339;419;25;4;280;5531;5;291;221;23;5;520;15053;4;245;221;401;644;32;6;286;11177;4;172;79;569;225;31;7;267;10769;4;309;468;27;8;179;10431;4;210;390;26;9;64;5231;4;87;451;21
11.11.18;16:00:00;1;402;7230;0;2;756;8409;4;812;377;27;3;382;5125;4;426;441;26;4;320;5508;5;334;201;23;5;707;15006;4;343;298;406;662;32;6;364;11151;4;252;121;522;225;31;7;371;10746;4;421;490;27;8;306;10416;4;347;432;26;9;23;5226;4;31;535;21
11.11.18;15:55:00;1;406;7196;0;2;335;8347;4;376;358;27;3;143;5093;4;182;486;26;4;148;5481;5;155;200;23;5;419;14948;4;201;175;396;610;32;6;232;11120;4;145;104;444;322;31;7;234;10716;4;285;452;28;8;220;10391;4;250;446;27;9;0;5224;6;0;571;22
11.11.18;15:50:00;1;1319;7160;0;2;1034;8323;4;1104;378;29;3;550;5083;4;601;428;27;4;399;5471;5;415;200;23;5;1035;14922;4;516;438;416;671;33;6;790;11103;4;408;424;577;555;31;7;1066;10699;4;1121;456;28;8;569;10375;4;622;382;27;9;92;5224;4;122;509;22
11.11.18;15:45:00;1;1096;7050;0;2;1156;8238;4;1232;387;29;3;627;5038;4;677;431;27;4;438;5438;5;456;200;23;5;1201;14832;4;613;516;407;660;33;6;926;11035;4;466;477;590;555;31;7;1324;10613;4;1399;460;29;8;786;10329;4;836;357;28;9;107;5216;4;143;512;23
11.11.18;15:40:00;1;496;6991;0;2;1336;8141;4;1417;379;30;3;718;4985;4;774;429;27;4;454;5402;5;473;200;23;5;1450;14727;4;737;628;422;675;33;6;1115;10953;4;556;559;579;558;32;7;1727;10501;4;1822;466;29;8;1220;10261;4;1290;391;28;9;105;5207;4;135;422;23
11.11.18;15:35:00;1;484;6950;0;2;1430;8030;4;1517;386;31;3;776;4926;4;831;439;27;4;435;5364;5;453;202;24;5;1598;14604;4;817;695;428;661;33;6;1235;10859;4;678;676;592;559;32;7;1926;10358;4;2021;468;29;8;1566;10161;4;1650;414;28;9;107;5198;4;135;360;24
11.11.18;15:30:00;1;408;6914;0;2;1606;7911;4;1697;380;31;3;891;4861;4;952;425;28;4;452;5328;5;471;199;24;5;1911;14463;4;994;834;423;682;33;6;1450;10752;4;717;709;585;565;32;7;2212;10196;4;2324;466;29;8;1808;10029;4;1899;447;29;9;300;5189;4;331;355;25
11.11.18;15:25:00;1;410;6879;0;2;1668;7777;4;1764;387;31;3;931;4787;4;995;415;28;4;453;5290;5;472;210;24;5;2036;14304;4;1064;897;418;676;33;6;1557;10629;4;804;801;586;563;32;7;2189;10012;4;2305;460;29;8;1856;9878;4;1956;470;29;9;520;5165;4;561;352;26
11.11.18;15:20:00;1;467;6844;0;2;1839;7638;4;1939;381;32;3;1023;4709;4;1090;424;28;4;496;5253;5;516;213;24;5;2336;14128;4;1226;1021;423;686;33;6;1775;10495;4;896;888;587;569;32;7;2596;9827;4;2727;473;29;8;2267;9722;4;2380;476;29;9;855;5120;4;907;400;27
11.11.18;15:15:00;1;461;6805;0;2;1901;7485;4;2006;387;32;3;1065;4624;4;1130;415;28;4;484;5211;5;504;218;24;5;2466;13933;4;1297;1080;422;692;33;6;1883;10346;4;943;937;590;569;32;7;2699;9611;4;2836;472;29;8;2593;9534;4;2706;474;29;9;1050;5049;4;1112;404;27
11.11.18;15:10:00;1;491;6765;0;2;2029;7326;4;2140;381;32;3;1137;4535;4;1209;419;28;4;558;5170;5;581;232;24;5;2748;13721;4;1459;1211;420;690;33;6;2096;10183;4;1062;1045;590;567;32;7;2904;9386;4;3043;470;29;8;2829;9318;4;2973;474;29;9;1284;4960;4;1359;438;28
11.11.18;15:05:00;1;495;6724;0;2;2077;7157;4;2189;382;33;3;1169;4440;4;1243;419;29;4;591;5124;5;615;220;25;5;2882;13491;4;1526;1266;419;681;33;6;2201;10008;4;1158;1127;593;566;32;7;2992;9145;4;3135;468;29;8;2909;9082;4;3065;470;29;9;1385;4853;4;1462;456;28
11.11.18;15:00:00;1;463;6684;0;2;2187;6983;4;2306;385;33;3;1227;4342;4;1300;420;29;4;648;5074;5;675;223;25;5;3120;13246;4;1679;1383;424;688;33;6;2388;9821;4;1224;1193;591;569;32;7;3140;8896;4;3299;478;29;8;3064;8839;4;3220;472;29;9;1574;4737;4;1667;501;29
11.11.18;14:55:00;1;442;6645;0;2;2242;6801;4;2358;383;33;3;1258;4240;4;1332;423;29;4;676;5020;5;704;229;25;5;3243;12985;4;1757;1446;423;681;33;6;2491;9621;4;1288;1246;595;568;32;7;3237;8634;4;3408;476;29;8;3155;8584;4;3328;470;29;9;1651;4607;4;1751;512;29
11.11.18;14:50:00;1;342;6613;0;2;2341;6614;4;2466;386;33;3;1310;4135;4;1388;425;29;4;754;4964;5;785;221;25;5;3516;12708;4;1886;1564;422;682;33;6;2681;9410;4;1403;1366;587;567;32;7;3386;8364;4;3551;470;28;8;3297;8321;4;3463;475;28;9;1779;4468;4;1888;520;29
11.11.18;14:45:00;1;275;6584;0;2;2462;6420;4;2597;386;33;3;1340;4026;4;1419;431;29;4;784;4901;5;816;216;25;5;3670;12414;4;1974;1635;421;682;33;6;2796;9186;4;1437;1406;590;564;32;7;3512;8082;4;3684;472;28;8;3418;8046;4;3584;470;28;9;1858;4320;4;1963;515;28
11.11.18;14:40:00;1;194;6559;0;2;2706;6214;4;2854;398;32;3;1519;3915;4;1606;448;29;4;914;4835;5;952;223;26;5;4084;12103;4;2215;1819;419;678;33;6;3116;8947;4;1613;1567;586;568;31;7;3676;7788;4;3855;469;28;8;3584;7763;4;3759;468;27;9;1943;4166;4;2056;521;28
11.11.18;14:35:00;1;155;6542;0;2;3038;5989;4;3196;394;32;3;1783;3789;4;1886;462;29;4;1209;4760;5;1259;249;26;5;4751;11760;4;2578;2121;423;677;33;6;3600;8687;4;1882;1822;589;578;31;7;4044;7483;4;4227;468;27;8;3929;7463;4;4117;470;27;9;2129;4003;4;2253;519;28
11.11.18;14:30:00;1;154;6529;0;2;2677;5733;4;2824;399;29;3;1669;3638;4;1772;510;28;4;1440;4656;5;1500;252;25;5;4434;11338;4;2402;1982;427;690;32;6;3450;8367;4;1780;1720;595;579;31;7;3840;7142;4;4032;467;27;8;3740;7131;4;3920;480;26;9;2058;3824;4;2174;503;26
11.11.18;14:25:00;1;154;6516;0;2;1657;5506;4;1750;387;29;3;1080;3497;4;1158;510;28;4;1222;4536;5;1273;245;25;5;2958;10979;4;1582;1309;412;697;32;6;2353;8088;4;1205;1175;573;561;31;7;2713;6819;4;2835;492;27;8;2740;6816;4;2872;461;26;9;1357;3651;4;1444;527;26
11.11.18;14:20:00;1;155;6503;0;2;2417;5370;4;2549;397;28;3;1527;3409;4;1627;520;27;4;1441;4435;5;1501;248;25;5;3956;10710;4;2147;1740;422;694;32;6;3174;7884;4;1649;1580;599;580;31;7;3797;6584;4;3980;475;26;8;3871;6576;4;4061;474;26;9;2062;3531;4;2185;529;25
11.11.18;14:15:00;1;153;6490;0;2;1668;5174;4;1766;403;27;3;1105;3285;4;1189;510;27;4;1088;4316;5;1133;241;25;5;3036;10350;4;1610;1344;430;689;32;6;2498;7613;4;1262;1228;594;560;31;7;2754;6277;4;2906;467;26;8;2743;6262;4;2886;470;26;9;1500;3361;4;1593;527;24
11.11.18;14:10:00;1;200;6477;0;2;876;5055;4;940;391;27;3;551;3207;4;609;508;27;4;702;4236;5;732;234;25;5;1568;10186;4;819;684;411;650;32;6;1192;7482;4;589;589;576;551;31;7;1050;6087;4;1114;456;26;8;1026;6072;4;1092;455;26;9;547;3258;4;599;517;24
11.11.18;14:05:00;1;212;6460;0;2;1144;4982;4;1220;394;28;3;720;3161;4;784;510;27;4;931;4177;5;970;237;25;5;2054;10053;4;1072;899;407;670;32;6;1539;7381;4;785;765;574;562;31;7;1290;5999;4;1356;468;26;8;1254;5986;4;1331;470;26;9;671;3212;4;724;520;25